Regional Weather Roundup
Issued by NWS

Home | Current Version | Previous Version | Text Only | Print | Product List | Glossary Off
Versions: 1 2 3 4 5 6 7 8 9 10 11 12 13 14 15 16 17 18 19 20 21 22 23 24 25 26 27 28 29 30 31 32 33 34 35 36 37 38 39 40 41 42 43 44 45 46 47 48

000
ASUS45 KCYS 281210
RWRWY

WYOMING REGIONAL WEATHER ROUNDUP
NATIONAL WEATHER SERVICE CHEYENNE WY
600 AM MDT MON JUL 28 2014

NOTE:  "FAIR" INDICATES FEW OR NO CLOUDS BELOW 12,000 FEET
WITH NO SIGNIFICANT WEATHER AND/OR OBSTRUCTIONS TO VISIBILITY.

WYZ001-281300-
YELLOWSTONE NATIONAL PARK

CITY           SKY/WX    TMP DP  RH WIND       PRES   REMARKS
LK YELLOWSTONE   N/A     39  33  79 NW3       30.52R
6HR MIN TEMP:  38; 6HR MAX TEMP:  48;

W YELLOWSTONE  NOT AVBL

$$
WYZ002>013-054>058-071-098>099-281300-
NORTHERN WYOMING

CITY           SKY/WX    TMP DP  RH WIND       PRES   REMARKS
JACKSON        CLEAR     45  36  70 CALM      30.42R
CODY           NOT AVBL
GREYBULL       CLEAR     56  47  71 CALM      30.25S
6HR MIN TEMP:  56; 6HR MAX TEMP:  72;

WORLAND        CLEAR     55  36  48 S7        30.26S
6HR MIN TEMP:  55; 6HR MAX TEMP:  74;

SHERIDAN       CLEAR     49  43  80 NW3       30.29S
6HR MIN TEMP:  49; 6HR MAX TEMP:  64;

BUFFALO        CLEAR     57  43  59 SE8       30.36R
6HR MIN TEMP:  56; 6HR MAX TEMP:  66;

GILLETTE       CLEAR     59  48  67 S7        30.34F
6HR MIN TEMP:  51; 6HR MAX TEMP:  60;

HULETT         FAIR      52  46  82 MISG      30.36
NEWCASTLE      FAIR      55  43  62 CALM      30.36

$$
WYZ014>020-022>026-101>103-281300-
CENTRAL WYOMING

CITY           SKY/WX    TMP DP  RH WIND       PRES   REMARKS
BIG PINEY      PTCLDY    48  27  44 E3        30.45S
6HR MIN TEMP:  46; 6HR MAX TEMP:  59;

PINEDALE       PTSUNNY   45  36  70 NW5       30.47S
DUBOIS         FAIR      46  28  49 NW14      30.48S
LANDER         CLEAR     62  31  31 SW3       30.34R
6HR MIN TEMP:  58; 6HR MAX TEMP:  69;

RIVERTON       CLEAR     57  37  47 NW7       30.34S
6HR MIN TEMP:  55; 6HR MAX TEMP:  72;

CASPER         CLEAR     49  40  71 CALM      30.35F
6HR MIN TEMP:  49; 6HR MAX TEMP:  66;

DOUGLAS        CLEAR     55  46  71 E7        30.35S
6HR MIN TEMP:  54; 6HR MAX TEMP:  67;


$$
WYZ021-027>030-104>119-281300-
SOUTHERN WYOMING

CITY           SKY/WX    TMP DP  RH WIND       PRES   REMARKS
EVANSTON       MOCLDY    61  29  29 E7        30.40R
6HR MIN TEMP:  61; 6HR MAX TEMP:  72;

KEMMERER       MOSUNNY  N/A N/A N/A N12       30.42S
FORT BRIDGER   FAIR      58  27  30 CALM      30.43R
ROCK SPRINGS   PTCLDY    60  46  59 NE9       30.39S
6HR MIN TEMP:  59; 6HR MAX TEMP:  69;

DIXON          FAIR      54  44  68 E9        30.41S
RAWLINS        PTCLDY    53  48  83 CALM      30.43R
6HR MIN TEMP:  53; 6HR MAX TEMP:  64;

SARATOGA       FAIR      46  43  87 SE5       30.45S
LARAMIE        FOG       48  48 100 SE5       30.45S VSB 1
6HR MIN TEMP:  49; 6HR MAX TEMP:  59;

CHEYENNE       CLEAR     56  53  90 W10       30.40S
6HR MIN TEMP:  54; 6HR MAX TEMP:  64;

TORRINGTON     CLEAR     57  48  72 E8        30.31S
6HR MIN TEMP:  57; 6HR MAX TEMP:  67;

PINE BLUFFS    FAIR      52  46  82 CALM      30.36S

$$


USA.gov is the U.S. government's official web portal to all federal, state and local government web resources and services.